User: anonymous   Login
Location: Cheching
(60.0667°N, 164.2167°W)
Time: 10:49:52
(UTC+00:00)
Language:

BUGSAT 1 - Orbit

View from above orbital plane
View from above orbital plane
View from above satellite
View from above satellite

Ground track
Ground track

The orbit data is extracted from the following two-line orbital elements,

1 40014U 14033E   21017.16176674  .00000688  00000-0  67181-4 0  9998
2 40014  98.0934 351.5193 0030287 307.6423  52.2047 14.95624428358951
Epoch (UTC): 17 January 2021 03:52:56
Eccentricity: 0.0030287
inclination: 98.0934°
perigee height: 559 km
apogee height: 601 km
right ascension of ascending node: 351.5193°
argument of perigee: 307.6423°
revolutions per day: 14.95624428
mean anomaly at epoch: 52.2047°
orbit number at epoch: 35895

The dashed part of the orbit path shows where the satellite is in the earth's shadow,  

DLR